Powrót do katalogu

STARLINK-30989

AktywnyŁącznośćVLEO
NORAD 58510·PAYLOAD·🇺🇸 United States

Wystrzelony Dec 7, 2023 z Cape Canaveral Space Force Station

Loading…

Następne Przeloty (najbliższe 24 godziny)

TLE

ŚwieżeSource: CelesTrak SupGP

Epoka: Sep 15, 2026, 03:23 UTC

1 58510C 23191C   26258.14145833  .00033294  00000+0  12057-2 0  2582
2 58510  42.9997 113.7780 0001479 274.3202  41.6174 15.27566190    15

Śledź STARLINK-30989 w czasie rzeczywistym z AllMySat

Download on the App Store